K6OUA-11 Weather Reports


time (UTC)temp
C
wind
direction
speed
KPH
gust
KPH
rain 1hr
cm
rain 24hr
cm
rain mn
cm
humidity
%
barometer
mb
20260507205359 24 246 12.9 25.7 0.00 0.00 0.00 51
20260507205156 23 237 4.8 24.1 0.00 0.00 0.00 52
20260507204954 23 277 20.9 24.1 0.00 0.00 0.00 51
20260507204752 23 247 17.7 25.7 0.00 0.00 0.00 52
20260507204550 23 282 14.5 25.7 0.00 0.00 0.00 51
20260507203944 24 278 11.3 22.5 0.00 0.00 0.00 50
20260507202532 23 268 22.5 22.5 0.00 0.00 0.00 51
20260507202127 23 267 19.3 27.4 0.00 0.00 0.00 51
20260507201521 24 246 16.1 22.5 0.00 0.00 0.00 51
20260507201319 24 281 6.4 24.1 0.00 0.00 0.00 52
20260507201115 23 289 14.5 24.1 0.00 0.00 0.00 52
20260507200915 24 274 14.5 24.1 0.00 0.00 0.00 52
20260507200711 23 260 11.3 27.4 0.00 0.00 0.00 51
20260507200511 24 264 16.1 27.4 0.00 0.00 0.00 51
20260507200309 23 253 14.5 25.7 0.00 0.00 0.00 51
20260507200107 24 272 16.1 25.7 0.00 0.00 0.00 52
20260507195903 24 257 17.7 25.7 0.00 0.00 0.00 51
20260507195703 24 254 11.3 25.7 0.00 0.00 0.00 51
20260507195501 23 250 12.9 25.7 0.00 0.00 0.00 51
20260507195257 24 229 16.1 25.7 0.00 0.00 0.00 52
20260507194856 24 286 20.9 25.7 0.00 0.00 0.00 51
20260507194654 24 261 12.9 22.5 0.00 0.00 0.00 51
20260507194451 24 258 17.7 22.5 0.00 0.00 0.00 49
20260507194248 24 240 12.9 22.5 0.00 0.00 0.00 50
20260507194047 24 270 14.5 22.5 0.00 0.00 0.00 51
20260507193846 24 244 16.1 22.5 0.00 0.00 0.00 50
20260507193441 24 298 11.3 19.3 0.00 0.00 0.00 49
20260507193240 25 262 8.0 22.5 0.00 0.00 0.00 50
20260507192834 24 275 12.9 22.5 0.00 0.00 0.00 51
20260507192633 24 257 19.3 20.9 0.00 0.00 0.00 48
20260507192436 25 309 6.4 20.9 0.00 0.00 0.00 49
20260507192230 24 261 9.7 20.9 0.00 0.00 0.00 49
20260507192028 24 284 11.3 20.9 0.00 0.00 0.00 49
20260507191826 24 237 6.4 20.9 0.00 0.00 0.00 50
20260507191622 23 260 11.3 24.1 0.00 0.00 0.00 50
20260507191420 23 274 11.3 24.1 0.00 0.00 0.00 50
20260507191220 23 268 19.3 17.7 0.00 0.00 0.00 50
20260507191018 24 267 17.7 17.7 0.00 0.00 0.00 49
20260507190209 24 261 12.9 20.9 0.00 0.00 0.00 48
20260507190008 24 260 6.4 20.9 0.00 0.00 0.00 48
20260507185604 23 277 12.9 17.7 0.00 0.00 0.00 48
20260507185402 23 262 12.9 17.7 0.00 0.00 0.00 50
20260507185201 23 268 16.1 20.9 0.00 0.00 0.00 50
20260507184958 23 262 14.5 20.9 0.00 0.00 0.00 51
20260507184756 23 268 17.7 17.7 0.00 0.00 0.00 49
20260507184555 23 247 12.9 17.7 0.00 0.00 0.00 50
20260507184151 23 271 9.7 19.3 0.00 0.00 0.00 50
20260507183949 23 282 6.4 19.3 0.00 0.00 0.00 50
20260507183746 23 236 11.3 17.7 0.00 0.00 0.00 51
20260507183344 23 282 12.9 17.7 0.00 0.00 0.00 51
20260507183141 23 264 16.1 19.3 0.00 0.00 0.00 51
20260507182938 23 267 14.5 19.3 0.00 0.00 0.00 51
20260507182737 23 295 11.3 14.5 0.00 0.00 0.00 51
20260507182534 23 278 11.3 14.5 0.00 0.00 0.00 49
20260507182333 23 293 8.0 14.5 0.00 0.00 0.00 51
20260507182131 23 265 11.3 14.5 0.00 0.00 0.00 50
20260507181927 23 285 8.0 14.5 0.00 0.00 0.00 50
20260507181727 23 257 8.0 17.7 0.00 0.00 0.00 52
20260507181525 23 244 12.9 17.7 0.00 0.00 0.00 51
20260507181323 23 277 8.0 17.7 0.00 0.00 0.00 54
20260507181120 22 288 9.7 17.7 0.00 0.00 0.00 53
20260507180919 22 288 1.6 17.7 0.00 0.00 0.00 54
20260507180717 22 288 14.5 17.7 0.00 0.00 0.00 53
20260507180312 22 267 6.4 16.1 0.00 0.00 0.00 54
20260507180110 22 295 6.4 16.1 0.00 0.00 0.00 52
20260507175916 22 281 16.1 16.1 0.00 0.00 0.00 54
20260507175505 22 285 9.7 16.1 0.00 0.00 0.00 55
20260507175102 22 272 11.3 17.7 0.00 0.00 0.00 55
20260507174900 22 288 8.0 17.7 0.00 0.00 0.00 55
20260507174052 21 313 8.0 17.7 0.00 0.00 0.00 56
20260507173850 22 274 12.9 17.7 0.00 0.00 0.00 56
20260507173648 22 267 16.1 12.9 0.00 0.00 0.00 56
20260507173446 22 260 8.0 12.9 0.00 0.00 0.00 57
20260507173042 21 309 4.8 14.5 0.00 0.00 0.00 57
20260507172840 21 281 11.3 14.5 0.00 0.00 0.00 56
20260507172638 21 286 9.7 14.5 0.00 0.00 0.00 58
20260507172436 21 291 11.3 14.5 0.00 0.00 0.00 57
20260507172234 21 275 11.3 14.5 0.00 0.00 0.00 56
20260507171830 21 272 12.9 14.5 0.00 0.00 0.00 58
20260507171629 21 341 3.2 14.5 0.00 0.00 0.00 58
20260507171427 21 271 12.9 14.5 0.00 0.00 0.00 58
20260507171223 20 296 11.3 17.7 0.00 0.00 0.00 58
20260507170820 20 274 11.3 12.9 0.00 0.00 0.00 60
20260507170214 20 302 6.4 12.9 0.00 0.00 0.00 58
20260507165811 20 267 1.6 14.5 0.00 0.00 0.00 60
20260507165609 20 296 6.4 14.5 0.00 0.00 0.00 60
20260507165407 20 275 9.7 14.5 0.00 0.00 0.00 61
20260507165205 20 284 9.7 16.1 0.00 0.00 0.00 60
20260507165003 20 288 12.9 16.1 0.00 0.00 0.00 61
20260507164559 20 307 6.4 14.5 0.00 0.00 0.00 61
20260507164358 20 277 14.5 14.5 0.00 0.00 0.00 61
20260507164156 20 270 11.3 14.5 0.00 0.00 0.00 62
20260507163750 20 270 9.7 14.5 0.00 0.00 0.00 63
20260507163548 19 271 9.7 14.5 0.00 0.00 0.00 63
20260507163348 19 288 14.5 14.5 0.00 0.00 0.00 63
20260507163146 18 299 9.7 14.5 0.00 0.00 0.00 64
20260507162944 18 288 11.3 14.5 0.00 0.00 0.00 63
20260507162744 19 270 12.9 12.9 0.00 0.00 0.00 64
20260507162338 19 274 11.3 12.9 0.00 0.00 0.00 64
20260507162135 18 291 9.7 14.5 0.00 0.00 0.00 65
20260507161935 18 251 3.2 14.5 0.00 0.00 0.00 65
20260507161733 18 300 8.0 11.3 0.00 0.00 0.00 65
20260507161529 18 270 4.8 11.3 0.00 0.00 0.00 67
20260507161329 18 285 6.4 11.3 0.00 0.00 0.00 66
20260507160925 18 292 9.7 11.3 0.00 0.00 0.00 66
20260507160723 18 299 4.8 11.3 0.00 0.00 0.00 67
20260507160522 18 291 9.7 11.3 0.00 0.00 0.00 67
20260507160118 18 285 8.0 11.3 0.00 0.00 0.00 67
20260507155916 18 317 3.2 11.3 0.00 0.00 0.00 68
20260507155512 17 277 6.4 9.7 0.00 0.00 0.00 68
20260507155310 17 241 0.0 11.3 0.00 0.00 0.00 69
20260507155106 17 274 6.4 11.3 0.00 0.00 0.00 68
20260507154906 17 293 8.0 11.3 0.00 0.00 0.00 68
20260507154704 18 281 9.7 9.7 0.00 0.00 0.00 69
20260507154503 17 265 4.8 9.7 0.00 0.00 0.00 70
20260507154301 17 292 3.2 9.7 0.00 0.00 0.00 70
20260507154059 17 305 6.4 9.7 0.00 0.00 0.00 70
20260507153855 17 285 3.2 9.7 0.00 0.00 0.00 70
20260507153453 17 298 4.8 8.0 0.00 0.00 0.00 71
20260507153251 17 289 3.2 8.0 0.00 0.00 0.00 71
20260507153049 17 286 4.8 8.0 0.00 0.00 0.00 72
20260507152847 17 292 4.8 8.0 0.00 0.00 0.00 73
20260507152646 17 274 8.0 8.0 0.00 0.00 0.00 73
20260507152443 17 282 6.4 8.0 0.00 0.00 0.00 73
20260507152439 16 284 3.2 6.4 0.00 0.00 0.00 74
20260507152242 17 288 4.8 6.4 0.00 0.00 0.00 72
20260507152038 17 279 4.8 6.4 0.00 0.00 0.00 74
20260507151837 16 284 3.2 6.4 0.00 0.00 0.00 74
20260507151636 16 272 6.4 4.8 0.00 0.00 0.00 74
20260507151434 16 265 0.0 4.8 0.00 0.00 0.00 74
20260507151230 16 282 3.2 4.8 0.00 0.00 0.00 73
20260507151030 16 277 1.6 4.8 0.00 0.00 0.00 74
20260507150828 16 237 0.0 4.8 0.00 0.00 0.00 74
20260507150626 16 277 3.2 0.0 0.00 0.00 0.00 73
20260507150424 16 77 0.0 0.0 0.00 0.00 0.00 73
20260507150223 16 77 0.0 0.0 0.00 0.00 0.00 73
20260507150019 16 77 0.0 0.0 0.00 0.00 0.00 74
20260507145819 16 77 0.0 1.6 0.00 0.00 0.00 75
20260507145616 16 77 0.0 1.6 0.00 0.00 0.00 75
20260507145415 16 77 0.0 1.6 0.00 0.00 0.00 75
20260507145213 16 77 0.0 4.8 0.00 0.00 0.00 76
20260507145011 16 77 0.0 4.8 0.00 0.00 0.00 76
20260507144809 16 87 0.0 4.8 0.00 0.00 0.00 76
20260507144607 16 92 1.6 4.8 0.00 0.00 0.00 76
20260507144405 16 113 4.8 4.8 0.00 0.00 0.00 76
20260507143800 15 66 1.6 6.4 0.00 0.00 0.00 79
20260507143356 15 64 0.0 6.4 0.00 0.00 0.00 81
20260507142952 14 115 6.4 6.4 0.00 0.00 0.00 81
20260507142750 14 122 6.4 6.4 0.00 0.00 0.00 81
20260507142548 14 126 4.8 6.4 0.00 0.00 0.00 82
20260507142346 14 112 4.8 6.4 0.00 0.00 0.00 82
20260507142144 13 101 4.8 4.8 0.00 0.00 0.00 82
20260507141942 13 127 3.2 4.8 0.00 0.00 0.00 83
20260507141538 13 112 3.2 4.8 0.00 0.00 0.00 83
20260507141337 13 97 3.2 4.8 0.00 0.00 0.00 84
20260507141134 13 119 3.2 4.8 0.00 0.00 0.00 84
20260507140933 13 61 0.0 4.8 0.00 0.00 0.00 85
20260507140731 13 97 3.2 4.8 0.00 0.00 0.00 85
20260507140529 13 116 4.8 4.8 0.00 0.00 0.00 85
20260507140327 13 112 3.2 4.8 0.00 0.00 0.00 86
20260507140125 13 108 3.2 3.2 0.00 0.00 0.00 86
20260507135923 13 105 3.2 3.2 0.00 0.00 0.00 85
20260507135721 13 116 3.2 3.2 0.00 0.00 0.00 86
20260507135317 13 126 1.6 4.8 0.00 0.00 0.00 86
20260507135116 12 126 1.6 4.8 0.00 0.00 0.00 86
20260507134913 12 123 1.6 4.8 0.00 0.00 0.00 87
20260507134711 12 125 1.6 6.4 0.00 0.00 0.00 87
20260507134510 12 115 1.6 6.4 0.00 0.00 0.00 88
20260507134308 12 123 1.6 4.8 0.00 0.00 0.00 88
20260507134106 12 111 4.8 4.8 0.00 0.00 0.00 89
20260507133904 12 116 1.6 4.8 0.00 0.00 0.00 89
20260507133702 12 106 1.6 0.0 0.00 0.00 0.00 89
20260507133500 12 81 0.0 0.0 0.00 0.00 0.00 89
20260507133258 12 81 0.0 0.0 0.00 0.00 0.00 89
20260507133057 12 81 0.0 0.0 0.00 0.00 0.00 90
20260507132855 12 81 0.0 0.0 0.00 0.00 0.00 90
20260507132653 12 81 0.0 0.0 0.00 0.00 0.00 90
20260507132451 12 81 0.0 0.0 0.00 0.00 0.00 90
20260507132249 12 81 0.0 3.2 0.00 0.00 0.00 90
20260507131643 11 81 0.0 6.4 0.00 0.00 0.00 90
20260507131442 11 108 1.6 6.4 0.00 0.00 0.00 90
20260507131240 11 116 3.2 3.2 0.00 0.00 0.00 90
20260507131038 11 111 1.6 3.2 0.00 0.00 0.00 90
20260507130836 11 133 1.6 3.2 0.00 0.00 0.00 90
20260507130633 11 105 0.0 3.2 0.00 0.00 0.00 90
20260507130432 11 126 1.6 3.2 0.00 0.00 0.00 91
20260507130230 11 119 1.6 3.2 0.00 0.00 0.00 91
20260507130028 11 116 1.6 3.2 0.00 0.00 0.00 91
20260507125826 11 111 1.6 3.2 0.00 0.00 0.00 91
20260507125624 11 97 1.6 3.2 0.00 0.00 0.00 91
20260507125422 11 109 3.2 3.2 0.00 0.00 0.00 90
20260507125220 11 113 3.2 3.2 0.00 0.00 0.00 89
20260507125018 11 105 0.0 3.2 0.00 0.00 0.00 89
20260507124816 11 116 1.6 0.0 0.00 0.00 0.00 88
20260507124211 12 87 0.0 0.0 0.00 0.00 0.00 89
20260507124009 12 87 0.0 0.0 0.00 0.00 0.00 89
20260507123807 12 87 0.0 0.0 0.00 0.00 0.00 89
20260507123605 12 87 0.0 0.0 0.00 0.00 0.00 89
20260507123403 12 87 0.0 0.0 0.00 0.00 0.00 89
20260507123159 12 87 0.0 0.0 0.00 0.00 0.00 89
20260507122959 12 87 0.0 0.0 0.00 0.00 0.00 89
20260507122556 12 87 0.0 1.6 0.00 0.00 0.00 89
20260507122353 12 87 0.0 1.6 0.00 0.00 0.00 89
20260507122152 12 87 0.0 3.2 0.00 0.00 0.00 89
20260507121748 12 87 0.0 0.0 0.00 0.00 0.00 89
20260507121546 12 71 0.0 0.0 0.00 0.00 0.00 89
20260507121344 12 71 0.0 0.0 0.00 0.00 0.00 89
20260507121142 12 71 0.0 0.0 0.00 0.00 0.00 89
20260507120738 12 71 0.0 4.8 0.00 0.00 0.00 90
20260507120536 12 71 0.0 4.8 0.00 0.00 0.00 90
20260507120334 12 71 0.0 4.8 0.00 0.00 0.00 90
20260507120133 12 102 3.2 1.6 0.00 0.00 0.00 90
20260507115931 12 92 0.0 1.6 0.00 0.00 0.00 90
20260507115728 12 92 0.0 1.6 0.00 0.00 0.00 90
20260507115527 12 70 0.0 1.6 0.00 0.00 0.00 90
20260507115325 12 91 0.0 1.6 0.00 0.00 0.00 90
20260507115123 12 91 0.0 0.0 0.00 0.00 0.00 90
20260507114921 12 71 0.0 0.0 0.00 0.00 0.00 90
20260507114719 12 71 0.0 0.0 0.00 0.00 0.00 90
20260507114518 12 71 0.0 0.0 0.00 0.00 0.00 89
20260507114315 12 71 0.0 0.0 0.00 0.00 0.00 89
20260507114114 12 71 0.0 0.0 0.00 0.00 0.00 89
20260507113911 12 71 0.0 0.0 0.00 0.00 0.00 89
20260507113709 12 71 0.0 0.0 0.00 0.00 0.00 89
20260507113507 12 71 0.0 0.0 0.00 0.00 0.00 89
20260507113306 12 71 0.0 0.0 0.00 0.00 0.00 89
20260507112902 12 71 0.0 0.0 0.00 0.00 0.00 89
20260507112700 12 71 0.0 0.0 0.00 0.00 0.00 89
20260507112257 12 60 0.0 0.0 0.00 0.00 0.00 89
20260507112055 12 77 0.0 0.0 0.00 0.00 0.00 89
20260507111651 12 77 0.0 0.0 0.00 0.00 0.00 89
20260507111449 12 77 0.0 0.0 0.00 0.00 0.00 89
20260507111247 12 77 0.0 0.0 0.00 0.00 0.00 89
20260507111045 12 91 0.0 0.0 0.00 0.00 0.00 89
20260507110843 12 91 0.0 0.0 0.00 0.00 0.00 89
20260507110439 12 91 0.0 0.0 0.00 0.00 0.00 88
20260507110237 12 91 0.0 0.0 0.00 0.00 0.00 88
20260507110034 12 91 0.0 0.0 0.00 0.00 0.00 88
20260507105430 12 91 0.0 0.0 0.00 0.00 0.00 89
20260507105228 12 91 0.0 0.0 0.00 0.00 0.00 88
20260507105026 12 91 0.0 0.0 0.00 0.00 0.00 88
20260507104824 12 91 0.0 0.0 0.00 0.00 0.00 88
20260507104420 12 91 0.0 0.0 0.00 0.00 0.00 87
20260507104017 12 91 0.0 0.0 0.00 0.00 0.00 87
20260507103815 12 91 0.0 0.0 0.00 0.00 0.00 87
20260507103613 12 91 0.0 0.0 0.00 0.00 0.00 87
20260507103411 12 91 0.0 0.0 0.00 0.00 0.00 86
20260507103007 12 91 0.0 0.0 0.00 0.00 0.00 87
20260507102805 12 91 0.0 0.0 0.00 0.00 0.00 87
20260507102603 12 91 0.0 0.0 0.00 0.00 0.00 87
20260507102158 12 91 0.0 0.0 0.00 0.00 0.00 87
20260507101957 12 91 0.0 0.0 0.00 0.00 0.00 87
20260507101756 12 91 0.0 0.0 0.00 0.00 0.00 87
20260507101552 12 91 0.0 0.0 0.00 0.00 0.00 87
20260507101350 12 91 0.0 0.0 0.00 0.00 0.00 87
20260507101149 12 91 0.0 0.0 0.00 0.00 0.00 87
20260507100946 12 91 0.0 0.0 0.00 0.00 0.00 87
20260507100744 12 91 0.0 0.0 0.00 0.00 0.00 87
20260507100543 12 91 0.0 0.0 0.00 0.00 0.00 87
20260507100140 12 91 0.0 0.0 0.00 0.00 0.00 87
20260507095938 12 91 0.0 0.0 0.00 0.00 0.00 87
20260507095737 12 91 0.0 0.0 0.00 0.00 0.00 87
20260507095535 12 91 0.0 0.0 0.00 0.00 0.00 86
20260507095333 12 91 0.0 0.0 0.00 0.00 0.00 86
20260507095131 12 91 0.0 0.0 0.00 0.00 0.00 86
20260507094928 12 91 0.0 0.0 0.00 0.00 0.00 86
20260507094725 12 91 0.0 0.0 0.00 0.00 0.00 85
20260507094525 12 91 0.0 0.0 0.00 0.00 0.00 85
20260507094321 13 91 0.0 0.0 0.00 0.00 0.00 85
20260507094121 13 91 0.0 3.2 0.00 0.00 0.00 85
20260507093918 13 91 0.0 3.2 0.00 0.00 0.00 86
20260507093717 13 91 0.0 4.8 0.00 0.00 0.00 86
20260507093516 13 91 0.0 4.8 0.00 0.00 0.00 85
20260507093314 13 112 3.2 3.2 0.00 0.00 0.00 85
20260507092910 13 116 3.2 3.2 0.00 0.00 0.00 86
20260507092506 13 74 0.0 0.0 0.00 0.00 0.00 86
20260507092307 13 74 0.0 3.2 0.00 0.00 0.00 86
20260507092102 13 74 0.0 3.2 0.00 0.00 0.00 86
20260507091658 13 74 0.0 4.8 0.00 0.00 0.00 85
20260507091457 13 118 3.2 4.8 0.00 0.00 0.00 86
20260507090851 12 99 1.6 4.8 0.00 0.00 0.00 87
20260507090649 12 260 0.0 0.0 0.00 0.00 0.00 87
20260507090447 12 260 0.0 0.0 0.00 0.00 0.00 87
20260507090043 12 260 0.0 0.0 0.00 0.00 0.00 87
20260507085841 12 260 0.0 0.0 0.00 0.00 0.00 87
20260507085639 12 260 0.0 0.0 0.00 0.00 0.00 87
20260507085437 12 260 0.0 0.0 0.00 0.00 0.00 87
20260507085235 12 260 0.0 0.0 0.00 0.00 0.00 87
20260507085034 12 260 0.0 0.0 0.00 0.00 0.00 87
20260507084834 12 260 0.0 0.0 0.00 0.00 0.00 86
20260507084630 12 260 0.0 0.0 0.00 0.00 0.00 87
20260507084428 12 260 0.0 0.0 0.00 0.00 0.00 87
20260507083620 12 260 0.0 0.0 0.00 0.00 0.00 87
20260507083418 12 260 0.0 0.0 0.00 0.00 0.00 87
20260507083216 12 260 0.0 0.0 0.00 0.00 0.00 87
20260507083015 12 260 0.0 0.0 0.00 0.00 0.00 87
20260507082409 12 260 0.0 0.0 0.00 0.00 0.00 87
20260507082207 12 260 0.0 0.0 0.00 0.00 0.00 87
20260507082003 12 260 0.0 0.0 0.00 0.00 0.00 87
20260507081359 12 260 0.0 0.0 0.00 0.00 0.00 86
20260507081156 12 260 0.0 0.0 0.00 0.00 0.00 87
20260507081110 12 260 0.0 0.0 0.00 0.00 0.00 87
20260507080955 12 260 0.0 0.0 0.00 0.00 0.00 87
20260507080754 13 260 0.0 0.0 0.00 0.00 0.00 87
20260507080552 12 260 0.0 0.0 0.00 0.00 0.00 87
20260507080350 12 260 0.0 0.0 0.00 0.00 0.00 87
20260507080148 12 260 0.0 0.0 0.00 0.00 0.00 87
20260507075946 12 260 0.0 0.0 0.00 0.00 0.00 87
20260507075742 12 260 0.0 0.0 0.00 0.00 0.00 87
20260507075138 12 260 0.0 0.0 0.00 0.00 0.00 87
20260507074937 12 260 0.0 0.0 0.00 0.00 0.00 87
20260507074735 12 260 0.0 0.0 0.00 0.00 0.00 87
20260507074533 12 260 0.0 0.0 0.00 0.00 0.00 87
20260507074330 12 260 0.0 0.0 0.00 0.00 0.00 86
20260507074129 12 260 0.0 0.0 0.00 0.00 0.00 86
20260507073927 12 260 0.0 0.0 0.00 0.00 0.00 86
20260507073725 12 260 0.0 0.0 0.00 0.00 0.00 86
20260507073523 12 260 0.0 0.0 0.00 0.00 0.00 86
20260507073321 12 260 0.0 0.0 0.00 0.00 0.00 86
20260507072917 12 260 0.0 0.0 0.00 0.00 0.00 86
20260507072715 12 260 0.0 0.0 0.00 0.00 0.00 86
20260507072514 13 260 0.0 0.0 0.00 0.00 0.00 86
20260507072312 13 260 0.0 0.0 0.00 0.00 0.00 86
20260507072110 13 260 0.0 0.0 0.00 0.00 0.00 86
20260507071908 13 260 0.0 0.0 0.00 0.00 0.00 85
20260507071706 13 260 0.0 0.0 0.00 0.00 0.00 85
20260507071504 13 260 0.0 0.0 0.00 0.00 0.00 85
20260507071302 13 260 0.0 0.0 0.00 0.00 0.00 86
20260507071101 13 260 0.0 0.0 0.00 0.00 0.00 86
20260507070858 13 260 0.0 0.0 0.00 0.00 0.00 85
20260507070657 13 260 0.0 0.0 0.00 0.00 0.00 86
20260507070455 13 260 0.0 0.0 0.00 0.00 0.00 86
20260507070253 13 260 0.0 0.0 0.00 0.00 0.00 86
20260507070051 13 260 0.0 0.0 0.00 0.00 0.00 85
20260507065647 13 260 0.0 0.0 0.00 0.00 0.00 85
20260507065243 13 260 0.0 0.0 0.00 0.00 0.00 85
20260507065041 13 260 0.0 0.0 0.00 0.00 0.00 86
20260507064637 13 260 0.0 0.0 0.00 0.00 0.00 86
20260507064436 13 260 0.0 0.0 0.00 0.00 0.00 86
20260507064234 13 260 0.0 0.0 0.00 0.00 0.00 86
20260507064032 13 260 0.0 0.0 0.00 0.00 0.00 86
20260507063830 13 260 0.0 0.0 0.00 0.00 0.00 86
20260507063628 13 260 0.0 0.0 0.00 0.00 0.00 86
20260507063426 13 260 0.0 0.0 0.00 0.00 0.00 86
20260507063022 13 260 0.0 0.0 0.00 0.00 0.00 86
20260507062820 13 260 0.0 0.0 0.00 0.00 0.00 86
20260507062619 13 260 0.0 0.0 0.00 0.00 0.00 86
20260507062417 13 260 0.0 0.0 0.00 0.00 0.00 86
20260507062215 13 260 0.0 0.0 0.00 0.00 0.00 85
20260507062013 13 260 0.0 0.0 0.00 0.00 0.00 85
20260507061811 13 260 0.0 0.0 0.00 0.00 0.00 85
20260507061609 13 260 0.0 0.0 0.00 0.00 0.00 85
20260507061407 13 260 0.0 0.0 0.00 0.00 0.00 85
20260507061205 13 260 0.0 0.0 0.00 0.00 0.00 85
20260507061003 13 260 0.0 0.0 0.00 0.00 0.00 85
20260507060801 13 260 0.0 0.0 0.00 0.00 0.00 85
20260507060559 13 260 0.0 0.0 0.00 0.00 0.00 85
20260507060357 13 260 0.0 0.0 0.00 0.00 0.00 85
20260507060155 13 260 0.0 0.0 0.00 0.00 0.00 85
20260507055952 13 260 0.0 0.0 0.00 0.00 0.00 85
20260507055752 13 260 0.0 0.0 0.00 0.00 0.00 85
20260507055550 13 260 0.0 0.0 0.00 0.00 0.00 85
20260507055348 13 260 0.0 0.0 0.00 0.00 0.00 85
20260507055146 13 260 0.0 0.0 0.00 0.00 0.00 85
20260507054942 13 260 0.0 0.0 0.00 0.00 0.00 85
20260507054742 13 260 0.0 0.0 0.00 0.00 0.00 85
20260507054540 13 260 0.0 0.0 0.00 0.00 0.00 85
20260507054338 13 260 0.0 0.0 0.00 0.00 0.00 85
20260507054135 13 260 0.0 0.0 0.00 0.00 0.00 85
20260507053934 13 260 0.0 0.0 0.00 0.00 0.00 85
20260507053733 13 260 0.0 0.0 0.00 0.00 0.00 85
20260507053531 13 260 0.0 0.0 0.00 0.00 0.00 84
20260507053329 13 260 0.0 0.0 0.00 0.00 0.00 84
20260507053127 14 260 0.0 0.0 0.00 0.00 0.00 84
20260507052925 13 260 0.0 0.0 0.00 0.00 0.00 84
20260507052723 13 260 0.0 0.0 0.00 0.00 0.00 84
20260507052522 13 260 0.0 0.0 0.00 0.00 0.00 83
20260507052319 14 260 0.0 0.0 0.00 0.00 0.00 83
20260507052118 14 260 0.0 0.0 0.00 0.00 0.00 83
20260507051915 14 260 0.0 0.0 0.00 0.00 0.00 82
20260507051714 14 260 0.0 0.0 0.00 0.00 0.00 83
20260507051512 14 260 0.0 0.0 0.00 0.00 0.00 83
20260507051108 14 260 0.0 0.0 0.00 0.00 0.00 83
20260507050906 15 260 0.0 0.0 0.00 0.00 0.00 83
20260507050704 15 260 0.0 0.0 0.00 0.00 0.00 83
20260507050502 15 260 0.0 0.0 0.00 0.00 0.00 83
20260507050300 15 260 0.0 0.0 0.00 0.00 0.00 83
20260507050058 15 260 0.0 0.0 0.00 0.00 0.00 82
20260507045855 15 260 0.0 0.0 0.00 0.00 0.00 82
20260507045655 15 260 0.0 0.0 0.00 0.00 0.00 82
20260507045452 15 260 0.0 0.0 0.00 0.00 0.00 82
20260507045250 15 260 0.0 0.0 0.00 0.00 0.00 82
20260507045048 15 260 0.0 0.0 0.00 0.00 0.00 81
20260507044847 15 260 0.0 0.0 0.00 0.00 0.00 81
20260507044443 15 260 0.0 0.0 0.00 0.00 0.00 81
20260507044241 15 260 0.0 0.0 0.00 0.00 0.00 81
20260507043635 15 260 0.0 0.0 0.00 0.00 0.00 80
20260507043434 15 260 0.0 0.0 0.00 0.00 0.00 80
20260507043030 15 260 0.0 0.0 0.00 0.00 0.00 80
20260507042828 15 260 0.0 0.0 0.00 0.00 0.00 80
20260507042626 15 260 0.0 0.0 0.00 0.00 0.00 79
20260507042422 15 260 0.0 0.0 0.00 0.00 0.00 79
20260507042222 15 260 0.0 0.0 0.00 0.00 0.00 79
20260507042020 15 260 0.0 0.0 0.00 0.00 0.00 79
20260507041818 15 260 0.0 3.2 0.00 0.00 0.00 79
20260507041616 15 260 0.0 3.2 0.00 0.00 0.00 79
20260507041414 15 260 0.0 3.2 0.00 0.00 0.00 79
20260507041213 15 260 0.0 3.2 0.00 0.00 0.00 79
20260507041011 15 260 0.0 3.2 0.00 0.00 0.00 79
20260507040809 16 288 0.0 3.2 0.00 0.00 0.00 79
20260507040607 16 310 0.0 3.2 0.00 0.00 0.00 79
20260507040405 16 302 1.6 3.2 0.00 0.00 0.00 78
20260507040201 16 302 3.2 1.6 0.00 0.00 0.00 78
20260507040001 16 293 0.0 1.6 0.00 0.00 0.00 78
20260507035759 16 305 0.0 3.2 0.00 0.00 0.00 77
20260507035557 16 298 0.0 3.2 0.00 0.00 0.00 77
20260507035355 16 298 0.0 3.2 0.00 0.00 0.00 77
20260507034952 16 261 0.0 3.2 0.00 0.00 0.00 76
20260507034750 16 261 0.0 1.6 0.00 0.00 0.00 75
20260507034548 16 274 0.0 1.6 0.00 0.00 0.00 75
20260507034347 16 274 0.0 1.6 0.00 0.00 0.00 75
20260507033942 16 296 1.6 1.6 0.00 0.00 0.00 75
20260507033740 16 257 0.0 0.0 0.00 0.00 0.00 75
20260507033538 16 257 0.0 0.0 0.00 0.00 0.00 75
20260507033336 16 257 0.0 0.0 0.00 0.00 0.00 75
20260507033134 16 257 0.0 3.2 0.00 0.00 0.00 75
20260507032932 16 257 0.0 3.2 0.00 0.00 0.00 74
20260507032730 16 257 0.0 4.8 0.00 0.00 0.00 75
20260507032529 16 257 0.0 4.8 0.00 0.00 0.00 75
20260507032327 16 286 3.2 4.8 0.00 0.00 0.00 75
20260507032125 16 288 1.6 1.6 0.00 0.00 0.00 74
20260507031923 16 262 0.0 1.6 0.00 0.00 0.00 74
20260507031721 16 240 0.0 0.0 0.00 0.00 0.00 74
20260507031519 16 239 0.0 0.0 0.00 0.00 0.00 73
20260507031315 16 239 0.0 0.0 0.00 0.00 0.00 73
20260507031115 17 239 0.0 0.0 0.00 0.00 0.00 72
20260507030913 17 239 0.0 0.0 0.00 0.00 0.00 72
20260507030712 17 239 0.0 3.2 0.00 0.00 0.00 72
20260507030510 17 239 0.0 3.2 0.00 0.00 0.00 71
20260507025903 17 282 3.2 3.2 0.00 0.00 0.00 71
20260507025702 17 279 1.6 0.0 0.00 0.00 0.00 71
20260507025055 17 253 0.0 0.0 0.00 0.00 0.00 69
20260507024854 17 253 0.0 0.0 0.00 0.00 0.00 68
20260507024651 17 253 0.0 0.0 0.00 0.00 0.00 68
20260507024249 18 253 0.0 0.0 0.00 0.00 0.00 67
20260507024046 18 253 0.0 0.0 0.00 0.00 0.00 67
20260507023845 18 253 0.0 0.0 0.00 0.00 0.00 67
20260507023441 18 253 0.0 6.4 0.00 0.00 0.00 67
20260507023239 18 253 0.0 9.7 0.00 0.00 0.00 67
20260507023037 18 284 3.2 9.7 0.00 0.00 0.00 67
20260507022432 18 274 6.4 9.7 0.00 0.00 0.00 66
20260507022028 18 293 6.4 11.3 0.00 0.00 0.00 65
20260507021624 18 286 6.4 9.7 0.00 0.00 0.00 64
20260507021422 18 300 4.8 9.7 0.00 0.00 0.00 63
20260507021220 18 275 6.4 11.3 0.00 0.00 0.00 63
20260507021018 18 289 6.4 11.3 0.00 0.00 0.00 63
20260507020816 18 272 8.0 12.9 0.00 0.00 0.00 62
20260507020615 18 281 3.2 12.9 0.00 0.00 0.00 62
20260507020412 18 303 4.8 12.9 0.00 0.00 0.00 62
20260507020211 18 274 9.7 12.9 0.00 0.00 0.00 62
20260507020009 18 278 9.7 12.9 0.00 0.00 0.00 62
20260507015805 19 265 11.3 12.9 0.00 0.00 0.00 62
20260507015603 19 267 8.0 12.9 0.00 0.00 0.00 62
20260507015401 18 278 9.7 12.9 0.00 0.00 0.00 61
20260507015159 19 274 11.3 11.3 0.00 0.00 0.00 60
20260507014957 19 307 4.8 11.3 0.00 0.00 0.00 61
20260507014757 19 254 8.0 9.7 0.00 0.00 0.00 60
20260507014555 19 270 8.0 9.7 0.00 0.00 0.00 61
20260507014353 19 279 4.8 9.7 0.00 0.00 0.00 60
20260507014151 19 246 4.8 16.1 0.00 0.00 0.00 61
20260507013948 19 277 8.0 16.1 0.00 0.00 0.00 61
20260507013748 19 278 8.0 14.5 0.00 0.00 0.00 60
20260507013546 19 279 6.4 14.5 0.00 0.00 0.00 59
20260507013344 19 271 12.9 14.5 0.00 0.00 0.00 59
20260507012940 20 309 4.8 14.5 0.00 0.00 0.00 59
20260507012738 20 268 3.2 16.1 0.00 0.00 0.00 59
20260507012537 20 230 4.8 16.1 0.00 0.00 0.00 59
20260507012333 20 222 6.4 16.1 0.00 0.00 0.00 59
20260507012132 19 246 11.3 19.3 0.00 0.00 0.00 58
20260507011931 20 295 8.0 19.3 0.00 0.00 0.00 59
20260507011729 19 279 11.3 16.1 0.00 0.00 0.00 59
20260507011325 20 284 9.7 16.1 0.00 0.00 0.00 57
20260507011121 20 265 11.3 14.5 0.00 0.00 0.00 57
20260507010921 20 247 0.0 14.5 0.00 0.00 0.00 57
20260507010719 20 265 8.0 20.9 0.00 0.00 0.00 57
20260507010611 20 248 3.2 20.9 0.00 0.00 0.00 57
20260507010517 20 248 3.2 20.9 0.00 0.00 0.00 57
20260507010315 20 241 9.7 19.3 0.00 0.00 0.00 58
20260507005912 20 275 9.7 19.3 0.00 0.00 0.00 57
20260507005710 20 253 11.3 20.9 0.00 0.00 0.00 57
20260507005507 20 257 9.7 20.9 0.00 0.00 0.00 57
20260507005306 20 275 11.3 20.9 0.00 0.00 0.00 58
20260507005104 20 275 11.3 20.9 0.00 0.00 0.00 58
20260507004902 20 274 12.9 20.9 0.00 0.00 0.00 57
20260507004700 20 251 17.7 20.9 0.00 0.00 0.00 57
20260507004458 20 250 4.8 20.9 0.00 0.00 0.00 58
20260507004256 20 272 14.5 19.3 0.00 0.00 0.00 58
20260507004055 20 253 6.4 19.3 0.00 0.00 0.00 58
20260507003851 20 258 11.3 19.3 0.00 0.00 0.00 58
20260507003449 20 244 12.9 19.3 0.00 0.00 0.00 58
20260507003245 20 284 11.3 20.9 0.00 0.00 0.00 57
20260507003045 20 267 16.1 20.9 0.00 0.00 0.00 56
20260507002843 20 293 4.8 20.9 0.00 0.00 0.00 57
20260507002641 20 275 3.2 20.9 0.00 0.00 0.00 58
20260507002437 20 257 11.3 20.9 0.00 0.00 0.00 57
20260507002035 21 258 11.3 22.5 0.00 0.00 0.00 56
20260507001833 20 272 14.5 22.5 0.00 0.00 0.00 56
20260507001631 20 264 9.7 22.5 0.00 0.00 0.00 56
20260507001228 20 244 4.8 25.7 0.00 0.00 0.00 57
20260507000823 20 255 11.3 25.7 0.00 0.00 0.00 57
20260507000620 20 279 16.1 20.9 0.00 0.00 0.00 56
20260507000420 21 260 14.5 20.9 0.00 0.00 0.00 56
20260507000216 21 255 3.2 20.9 0.00 0.00 0.00 57
20260507000014 20 251 14.5 20.9 0.00 0.00 0.00 56
20260506235814 20 268 11.3 17.7 0.00 0.00 0.00 56
20260506235612 21 258 12.9 17.7 0.00 0.00 0.00 55
20260506235410 21 255 14.5 17.7 0.00 0.00 0.00 56
20260506235208 21 277 14.5 24.1 0.00 0.00 0.00 55
20260506235006 21 247 4.8 24.1 0.00 0.00 0.00 55
20260506234602 21 270 14.5 24.1 0.00 0.00 0.00 56
20260506234400 21 272 12.9 24.1 0.00 0.00 0.00 55
20260506234158 21 261 16.1 24.1 0.00 0.00 0.00 56
20260506233552 21 264 4.8 22.5 0.00 0.00 0.00 57
20260506233350 21 230 12.9 22.5 0.00 0.00 0.00 57
20260506233148 21 268 12.9 22.5 0.00 0.00 0.00 57
20260506232946 21 248 14.5 22.5 0.00 0.00 0.00 57
20260506232743 21 281 11.3 22.5 0.00 0.00 0.00 55
20260506232543 21 244 12.9 22.5 0.00 0.00 0.00 57
20260506232341 21 267 14.5 22.5 0.00 0.00 0.00 56
20260506231936 21 272 12.9 17.7 0.00 0.00 0.00 54
20260506231734 22 277 3.2 16.1 0.00 0.00 0.00 55
20260506231531 22 305 1.6 16.1 0.00 0.00 0.00 55
20260506231331 22 246 11.3 16.1 0.00 0.00 0.00 55
20260506230927 21 268 4.8 25.7 0.00 0.00 0.00 56
20260506230724 21 277 9.7 27.4 0.00 0.00 0.00 56
20260506230523 21 248 8.0 27.4 0.00 0.00 0.00 56
20260506230319 22 254 25.7 24.1 0.00 0.00 0.00 54
20260506230119 21 71 1.6 24.1 0.00 0.00 0.00 56
20260506225917 21 198 4.8 24.1 0.00 0.00 0.00 55
20260506225713 21 244 6.4 20.9 0.00 0.00 0.00 56
20260506225513 21 274 12.9 20.9 0.00 0.00 0.00 55
20260506225311 22 270 12.9 25.7 0.00 0.00 0.00 55
20260506225109 21 271 11.3 25.7 0.00 0.00 0.00 55
20260506224705 22 270 11.3 19.3 0.00 0.00 0.00 54
20260506224301 22 240 1.6 22.5 0.00 0.00 0.00 54
20260506224059 22 282 3.2 22.5 0.00 0.00 0.00 54
20260506223857 21 261 9.7 22.5 0.00 0.00 0.00 53
20260506223655 22 255 16.1 22.5 0.00 0.00 0.00 53
20260506223251 22 219 8.0 20.9 0.00 0.00 0.00 52
20260506223050 22 248 4.8 20.9 0.00 0.00 0.00 52
20260506222847 22 250 20.9 20.9 0.00 0.00 0.00 52
20260506222443 22 198 4.8 22.5 0.00 0.00 0.00 51
20260506222240 22 241 3.2 24.1 0.00 0.00 0.00 52
20260506222038 22 281 4.8 24.1 0.00 0.00 0.00 52
20260506221837 22 248 14.5 24.1 0.00 0.00 0.00 51
20260506221434 22 264 11.3 22.5 0.00 0.00 0.00 51
20260506221232 22 271 12.9 24.1 0.00 0.00 0.00 51
20260506221030 22 285 3.2 24.1 0.00 0.00 0.00 51
20260506220828 22 267 17.7 24.1 0.00 0.00 0.00 51
20260506220222 22 246 17.7 20.9 0.00 0.00 0.00 51
20260506220020 22 261 11.3 20.9 0.00 0.00 0.00 51
20260506215818 22 274 11.3 20.9 0.00 0.00 0.00 52
20260506215616 22 289 8.0 20.9 0.00 0.00 0.00 50
20260506215414 22 261 17.7 20.9 0.00 0.00 0.00 50
20260506215212 22 246 8.0 20.9 0.00 0.00 0.00 51
20260506215010 22 261 11.3 20.9 0.00 0.00 0.00 52
20260506214806 22 284 11.3 30.6 0.00 0.00 0.00 53
20260506214606 22 246 12.9 30.6 0.00 0.00 0.00 52
20260506214404 21 265 12.9 30.6 0.00 0.00 0.00 52
20260506214202 21 282 11.3 20.9 0.00 0.00 0.00 51
20260506214001 22 293 14.5 20.9 0.00 0.00 0.00 52
20260506213758 22 233 8.0 20.9 0.00 0.00 0.00 52
20260506213557 22 268 9.7 20.9 0.00 0.00 0.00 52
20260506213355 22 257 14.5 20.9 0.00 0.00 0.00 52
20260506213152 21 289 9.7 20.9 0.00 0.00 0.00 53
20260506212749 22 247 17.7 24.1 0.00 0.00 0.00 51
20260506212547 22 253 9.7 24.1 0.00 0.00 0.00 51
20260506212345 22 277 9.7 24.1 0.00 0.00 0.00 51
20260506211739 22 305 1.6 20.9 0.00 0.00 0.00 53
20260506211537 21 260 14.5 20.9 0.00 0.00 0.00 53
20260506211335 21 286 12.9 20.9 0.00 0.00 0.00 52
20260506211133 22 243 12.9 20.9 0.00 0.00 0.00 53
20260506210931 22 275 1.6 20.9 0.00 0.00 0.00 54
20260506210729 22 264 6.4 20.9 0.00 0.00 0.00 54
20260506210526 21 282 14.5 20.9 0.00 0.00 0.00 54
20260506210326 21 246 11.3 20.9 0.00 0.00 0.00 55
20260506205921 21 303 11.3 20.9 0.00 0.00 0.00 52
20260506205719 22 248 6.4 20.9 0.00 0.00 0.00 53